Preview of NWS' New Version of Forecast
This preview is not operational and should not be used for support decisions.

Regional Weather Roundup (RWR)

Issued by National Weather Service (NWS)

                            
000
ASUS43 KMKX 201000
RWRWI 

WISCONSIN REGIONAL WEATHER ROUNDUP
NATIONAL WEATHER SERVICE MILWAUKEE/SULLIVAN WI
500 AM CDT TUE AUG 20 2019

NOTE: "FAIR" INDICATES FEW OR NO CLOUDS BELOW 12,000 FEET WITH NO
SIGNIFICANT WEATHER AND/OR OBSTRUCTIONS TO VISIBILITY.

WIZ001-002-006>008-014>016-023>028-201100-
NORTHWEST WISCONSIN
  
CITY           SKY/WX    TMP DP  RH WIND       PRES   REMARKS
SUPERIOR ARPT  FAIR      59  58  95 CALM      29.90F                  
ASHLAND        FAIR      58  56  93 S3        29.93F                  
HAYWARD        FAIR      51  49  92 CALM      29.96F                  
SIREN          FAIR      60  58  94 SE3       29.91F                  
CUMBERLAND     FAIR      55  54  94 E3        29.95F                  
RICE LAKE      FAIR      56  39  54 CALM      29.97F                  
CHETEK         FAIR      58  58  97 CALM      29.97F                  
LADYSMITH      FAIR      56  55  98 CALM      30.00F                  
EAU CLAIRE     NOT AVBL                                               
MENOMONIE      FAIR      52  52  99 CALM      29.96S                  
NEW RICHMOND   FAIR      60  58  93 CALM      29.95F                  
OSCEOLA        FAIR      60  60 100 CALM      29.96F                  
$$
 
WIZ003>005-009-010-017-018-201100-
NORTH CENTRAL WISCONSIN
  
CITY           SKY/WX    TMP DP  RH WIND       PRES   REMARKS
MANITOWISH WTR FOG       49  49 100 CALM      30.00F VSB 1/4          
ARBOR VITAE    FAIR      53  50  90 CALM      30.02F                  
WOODRUFF       FAIR      53  50  90 CALM      30.02F                  
RHINELANDER    FAIR      51  49  92 CALM      30.02F                  
EAGLE RIVER    FOG       50  50 100 CALM      30.02F VSB 1            
LAND O LAKES   FAIR      48  48 100 CALM      30.04F                  
PHILLIPS       FAIR      51  51 100 CALM      30.00F                  
TOMAHAWK       FAIR      46  46  97 CALM      30.03F                  
MEDFORD        FAIR      49  49  99 CALM      30.00F                  
MERRILL        FAIR      47  47 100 NE3       30.03F FOG              
$$
 
WIZ029-030-035-036-043>047-201100-
CENTRAL WISCONSIN
  
CITY           SKY/WX    TMP DP  RH WIND       PRES   REMARKS
WAUSAU         FAIR      51  50  96 E6        30.00F                  
MOSINEE        FOG       50  50 100 CALM      30.04F VSB 1/2          
MARSHFIELD     FAIR      55  53  93 E3        29.98F                  
STEVENS POINT  FAIR      47  47 100 CALM      30.01F                  
WAUPACA        FAIR      54  54  98 CALM      30.01F                  
WAUTOMA        FAIR      52  51  97 CALM      30.00F                  
WISC RAPIDS    FAIR      54  52  93 CALM      30.00F                  
CAMP DOUGLAS   FAIR      53  53 100 CALM      29.98F                  
$$
 
WIZ011>013-019>022-031-037>040-048>050-201100-
NORTHEAST WISCONSIN
  
CITY           SKY/WX    TMP DP  RH WIND       PRES   REMARKS
ANTIGO         FAIR      48  48 100 CALM      30.03F                  
SHAWANO        FAIR      55  54  96 CALM      30.03F                  
OCONTO         FAIR      50  49  97 CALM      30.02F                  
STURGEON BAY   FAIR      58  57  97 CALM      30.04F                  
GREEN BAY      FAIR      57  55  93 CALM      30.03F                  
MANITOWOC      FOG       56  55  97 CALM      30.04F VSB 1/2          
APPLETON       FAIR      59  55  88 W5        30.03F                  
CLINTONVILLE   FOG       51  49  90 CALM      30.02F VSB 1            
OSHKOSH        FAIR      60  55  83 CALM      30.01F                  
$$
 
WIZ032>034-041-042-053>061-201100-
SOUTHWEST WISCONSIN
  
CITY           SKY/WX    TMP DP  RH WIND       PRES   REMARKS
LA CROSSE      FAIR      61  57  87 CALM      29.94F                  
SPARTA         FAIR      48  47  98 CALM      29.99F                  
VIROQUA        FAIR      60  60 100 E5        29.96F                  
BOSCOBEL       CLOUDY    61  60  97 NE5       29.93F FOG              
PRAIRIE DU CHI FAIR      63  61  94 CALM      29.93F                  
PLATTEVILLE    FAIR      64  64  97 E10       29.96F                  
$$

WIZ056-057-062-063-064-067-068-201100-
SOUTH CENTRAL WISCONSIN
  
CITY           SKY/WX    TMP DP  RH WIND       PRES   REMARKS
REEDSBURG      MOCLDY    56  56 100 CALM      29.98F                  
BARABOO/DELLS  FAIR      57  55  95 CALM      29.99F                  
LONE ROCK      FOG       60  60 100 E5        29.97F VSB 1/4          
MINERAL POINT    N/A     64  63  94 N6        30.00F                  
MADISON        FAIR      59  57  93 CALM      29.99F                  
MIDDLETON      FAIR      59  25  27 CALM      30.00F                  
WATERTOWN      CLOUDY    62  62 100 E5        30.03F                  
MONROE         FAIR      65  63  92 NE5       30.00F                  
JANESVILLE     FAIR      63  63 100 E3        30.00F                  
$$
 
WIZ051-052-058>065-066-070>072-201100-
SOUTHEAST WISCONSIN
  
CITY           SKY/WX    TMP DP  RH WIND       PRES   REMARKS
MILWAUKEE      FOG       70  68  93 NE3       30.01F VSB 1/2          
WAUKESHA       MOCLDY    61  61 100 CALM      30.05F                  
MILWAUKEE/TIMM FOG       66  63  88 CALM      30.03F VSB 1/2          
RACINE         FOG       70  68  93 N5        30.03F VSB 1/4          
KENOSHA        FOG       68  68 100 NE3       30.01F VSB 1/2          
FOND DU LAC    FAIR      59  56  89 CALM      30.02F                  
SHEBOYGAN      FAIR      56  54  93 CALM      30.03F                  
WEST BEND      FAIR      57  57 100 CALM      30.04F FOG              
JUNEAU         FAIR      60  59  97 CALM      30.03F                  
$$

LSZ147-162-201100-
LAKE SUPERIOR
  
STATION/POSITION TIME  TEMP    WIND        PRES    WAVE
                       AIR SEA DIR/SP/G            HT/PER
                 (UTC) (F)     (DEG/KT/KT) (MB)    (FT/S)
W MID LAKE BUOY  0850   65 63  230/  8/ 10 1013.3F   2/ 4
DEVILS ISLAND    0900   68     230/  8/  9 1013.9R
SAXON HARBOR     0940   65     190/  9/ 13 1013.2F
$$
 
LMZ867-665-643>646-201100-
LAKE MICHIGAN
  
STATION/POSITION TIME  TEMP    WIND        PRES    WAVE
                       AIR SEA DIR/SP/G            HT/PER
                 (UTC) (F)     (DEG/KT/KT) (MB)    (FT/S)
S GREEN BAY BUOY 0900   71 70  260/  4/  4 1017.4
N MID LAKE BUOY  0940   69 69  230/  8/ 10 1017.1S
NORTHPORT PIER   0940   62     190/  1/  3 1016.6S
KEWAUNEE LAKESHO 0930   59      CALM  /  3 1016.6F
SHEBOYGAN LAKESH 0900   66     190/  3/  4 1017.5R
PORT WASHINGTON  0940   65     290/  3/  3 1017.9F
S MID LAKE BUOY  0940   73 74   60/  8/ 10 1016.9S
KENOSHA   LAKESH 0900   72      10/  6/  9 1016.9
$$

TC  - TEMPERATURE IN CELSIUS
VSB - VISIBILITY IN STATUTE MILES
WCI - WIND CHILL INDEX
HX  - HEAT INDEX